Location: Lake Harris Campground
(43.9775°N, 74.1317°W)
Time: 09:31:17
(UTC-05:00)

ISS - All Passes

Search period start: 05 December 2016 00:00
Search period end: 15 December 2016 00:00
Orbit: 401 x 410 km, 51.6° (Epoch: 05 December)

Date Brightness Start Highest point End Pass type
(mag) Time Alt. Az. Time Alt. Az. Time Alt. Az.
05 Dec - 16:01:22 10° SSW 16:04:14 28° SE 16:07:07 10° ENE daylight
05 Dec - 17:37:26 10° W 17:40:37 45° NNW 17:43:50 10° NE visible
05 Dec - 19:15:03 10° WNW 19:17:41 21° N 19:20:20 10° NE visible
05 Dec - 20:51:59 10° NW 20:54:55 28° NNE 20:57:50 10° ENE night (unlit)
05 Dec - 22:28:21 10° WNW 22:31:39 72° SW 22:34:57 10° SE night (unlit)
06 Dec - 15:10:23 10° S 15:12:27 16° SE 15:14:33 10° E daylight
06 Dec - 16:45:19 10° WSW 16:48:36 73° NNW 16:51:54 10° NE visible
06 Dec - 18:22:44 10° WNW 18:25:30 24° N 18:28:17 10° NE visible
06 Dec - 20:00:01 10° NW 20:02:45 23° N 20:05:29 10° ENE visible
06 Dec - 21:36:23 10° NW 21:39:41 67° NNE 21:42:59 10° ESE night (unlit)
06 Dec - 23:13:34 10° W 23:15:53 18° SW 23:18:11 10° S night (unlit)
07 Dec - 15:53:22 10° SW 15:56:38 64° SE 15:59:54 10° ENE daylight
07 Dec - 17:30:23 10° W 17:33:20 29° NNW 17:36:18 10° NE visible
07 Dec - 19:07:55 10° NW 19:10:32 21° N 19:13:10 10° NE visible
07 Dec - 20:44:27 10° NW 20:47:38 42° NNE 20:50:49 10° E night (unlit)
07 Dec - 22:21:05 10° WNW 22:24:04 31° SW 22:27:02 10° SSE night (unlit)
08 Dec - 15:01:43 10° SSW 15:04:43 35° SE 15:07:46 10° ENE daylight
08 Dec - 16:38:04 10° W 16:41:12 39° NNW 16:44:21 10° NE daylight
08 Dec - 18:15:42 10° NW 18:18:19 21° N 18:20:56 10° NE visible
08 Dec - 19:52:30 10° NW 19:55:31 31° NNE 19:58:30 10° E visible
08 Dec - 21:28:54 10° WNW 21:32:10 57° SW 21:35:25 10° SE night (unlit)
09 Dec - 14:10:26 10° S 14:12:53 20° SE 14:15:21 10° E daylight
09 Dec - 15:45:52 10° WSW 15:49:07 60° NNW 15:52:24 10° NE daylight
09 Dec - 17:23:23 10° WNW 17:26:05 23° N 17:28:47 10° NE visible
09 Dec - 19:00:31 10° NW 19:03:19 25° NNE 19:06:07 10° ENE visible
09 Dec - 20:36:52 10° WNW 20:40:11 81° NNE 20:43:30 10° ESE night (unlit)
09 Dec - 22:14:26 10° W 22:16:17 14° SW 22:18:07 10° SSW night (unlit)
10 Dec - 13:20:12 10° SSE 13:21:07 11° SE 13:22:00 10° ESE daylight
10 Dec - 14:53:48 10° SW 14:57:05 81° SSE 15:00:23 10° ENE daylight
10 Dec - 16:31:00 10° WNW 16:33:52 27° NNW 16:36:44 10° NE daylight
10 Dec - 18:08:26 10° NW 18:11:06 22° N 18:13:45 10° ENE visible
10 Dec - 19:44:53 10° NW 19:48:07 50° NNE 19:51:21 10° ESE visible
10 Dec - 21:21:41 10° W 21:24:28 25° SW 21:27:14 10° SSE night (unlit)
11 Dec - 14:01:59 10° SW 14:05:06 44° SE 14:08:16 10° ENE daylight
11 Dec - 15:38:37 10° W 15:41:41 34° NNW 15:44:45 10° NE daylight
11 Dec - 17:16:14 10° NW 17:18:49 21° N 17:21:26 10° NE visible
11 Dec - 18:52:55 10° NW 18:55:59 34° NNE 18:59:03 10° E visible
11 Dec - 20:29:22 10° WNW 20:32:33 45° SW 20:35:44 10° SE night (unlit)
12 Dec - 13:10:29 10° SSW 13:13:13 24° SE 13:15:57 10° E daylight
12 Dec - 14:46:20 10° WSW 14:49:32 50° NNW 14:52:46 10° NE daylight
12 Dec - 16:23:55 10° WNW 16:26:33 22° N 16:29:13 10° NE daylight
12 Dec - 18:00:55 10° NW 18:03:46 26° NNE 18:06:39 10° ENE visible
12 Dec - 19:37:15 10° WNW 19:40:34 82° SSW 19:43:52 10° SE visible
12 Dec - 21:15:29 10° WSW 21:16:33 11° SW 21:17:38 10° SSW night (unlit)
13 Dec - 12:19:37 10° SSE 12:21:22 14° SE 12:23:06 10° E daylight
13 Dec - 13:54:09 10° WSW 13:57:26 83° NNW 14:00:45 10° ENE daylight
13 Dec - 15:31:30 10° WNW 15:34:17 25° NNW 15:37:05 10° NE daylight
13 Dec - 17:08:49 10° NW 17:11:32 22° N 17:14:13 10° ENE visible
13 Dec - 18:45:13 10° NW 18:48:30 59° NNE 18:51:46 10° ESE visible
13 Dec - 20:22:13 10° W 20:24:44 20° SW 20:27:15 10° S night (unlit)
14 Dec - 13:02:12 10° SW 13:05:24 55° SE 13:08:37 10° ENE daylight
14 Dec - 14:39:04 10° W 14:42:03 31° NNW 14:45:02 10° NE daylight
14 Dec - 16:16:37 10° NW 16:19:14 21° N 16:21:50 10° NE daylight
14 Dec - 17:53:12 10° NW 17:56:20 39° NNE 17:59:28 10° E visible
14 Dec - 19:29:45 10° WNW 19:32:49 36° SW 19:35:53 10° SSE visible
